Regional Weather Roundup
Issued by NWS San Angelo, TX

Home | Current Version | Previous Version | Text Only | Print | Product List | Glossary On
Versions: 1 2 3 4 5 6 7 8 9 10 11 12 13 14 15 16 17 18 19 20 21 22 23 24 25 26 27 28 29 30 31 32 33 34 35 36 37 38 39 40 41 42 43 44 45 46 47 48 49 50
000
ASUS44 KSJT 162110
RWRSJT
WEST CENTRAL TEXAS REGIONAL WEATHER ROUNDUP
NATIONAL WEATHER SERVICE SAN ANGELO TX
400 PM CDT WED AUG 16 2017

NOTE: "FAIR" INDICATES FEW OR NO CLOUDS BELOW 12,000 FEET WITH NO
SIGNIFICANT WEATHER AND/OR OBSTRUCTIONS TO VISIBILITY.

TXZ049-054-064>066-071>073-076>078-098-099-113-114-127-128-139-140-
154-155-168>170-162200
...LOCATIONS ACROSS WEST CENTRAL TEXAS...

CITY           SKY/WX    TMP DP  RH WIND       PRES   REMARKS
SAN ANGELO     MOSUNNY   95  70  44 SW8G17    29.89F
ABILENE        MOSUNNY   91  74  57 S14       29.90F
DYESS AFB      MOSUNNY   94  73  51 S14       29.88F
JUNCTION       SUNNY     94  72  48 SW9       29.91F
SWEETWATER     MOSUNNY   91  71  51 S10       29.95F
BROWNWOOD      CLOUDY    93  72  49 S10G18    29.91F
COLEMAN        CLEAR     92  71  50 S12G21    29.91F
SONORA         CLOUDY    88  73  62 S7G13     29.98F
OZONA          FAIR      90  70  51 S10       29.96F
BRADY          NOT AVBL
$$

TEXAS PANHANDLE/OKLAHOMA PANHANDLE

CITY           SKY/WX    TMP DP  RH WIND       PRES   REMARKS
AMARILLO       SUNNY     84  63  49 N8        30.01F
BORGER         SUNNY     88  56  33 N12       29.97F
CANADIAN       MOSUNNY   88  69  53 NW7       29.91S
DALHART        SUNNY     84  53  34 NW6       30.05F
DUMAS          CLEAR     82  55  40 N6        30.02F
GUYMON         NOT AVBL
HEREFORD       CLEAR     85  58  40 NW9       30.04S
PAMPA          CLEAR     85  63  47 NW7       29.98F
PERRYTON       SUNNY     88  56  34 N9G21     29.94S
$$

SOUTHERN PANHANDLE/SOUTH PLAINS/ROLLING PLAINS

CITY           SKY/WX    TMP DP  RH WIND       PRES   REMARKS
LUBBOCK        NOT AVBL
SNYDER         MOSUNNY   93  70  47 S7        29.93F
CHILDRESS      SUNNY     94  69  44 VRB3      29.87F
SEMINOLE       CLEAR     94  49  21 NE12      29.98F
$$

PERMIAN BASIN

CITY           SKY/WX    TMP DP  RH WIND       PRES   REMARKS
MIDLAND        MOSUNNY   95  60  31 CALM      29.93F
ODESSA         SUNNY     95  62  33 CALM      29.94F
WINK           SUNNY    101  45  15 VRB3G20   29.91F
$$

FAR WEST/SOUTHWEST MOUNTAINS/TRANS PECOS

CITY           SKY/WX    TMP DP  RH WIND       PRES   REMARKS
ALPINE         CLOUDY    92  51  24 CALM      30.11F
DRYDEN           N/A     90  71  53 SE6       29.91F
EL PASO        MOSUNNY   92  46  20 VRB5      30.04F
FORT STOCKTON  MOSUNNY  100  48  17 W13       29.93F
GUADALUPE PASS SUNNY     86  50  28 VRB7G17   30.16F
MARFA          CLOUDY    89  51  27 N7G18     30.10F
PECOS          CLEAR     98  49  19 NW8G16    29.91F
$$

DALLAS/FORT WORTH METROPLEX

CITY           SKY/WX    TMP DP  RH WIND       PRES   REMARKS
DFW AIRPORT    CLOUDY    94  74  52 SW14      29.87F
FTW MEACHAM    SUNNY     92  76  59 S13G23    29.88F
DAL-EXECUTIVE  CLOUDY    93  74  53 S9G17     29.88F
GRAND PRAIRIE  SUNNY     93  72  49 S12       29.90F
ADDISON        SUNNY     91  72  52 S8        29.90F
MESQUITE       MOCLDY    91  72  52 S12       29.89F
LANCASTER      MOCLDY    93  72  49 SW9       29.89F
$$

NORTH CENTRAL TEXAS

CITY           SKY/WX    TMP DP  RH WIND       PRES   REMARKS
SHRMAN/DENISON CLOUDY   N/A N/A N/A S9        29.90F
GAINESVILLE    CLOUDY    90  73  57 SE14      29.90F
BRIDGEPORT     CLEAR     92  73  52 S12G17    29.89F
DENTON         CLOUDY    92  76  59 S14G25    29.88F
WAXAHACHIE     CLOUDY    92  73  53 S13G18    29.90F
GRANBURY       PTCLDY    93  73  51 S14       29.90S
$$

WESTERN NORTH TEXAS

CITY           SKY/WX    TMP DP  RH WIND       PRES   REMARKS
WICHITA FALLS  MOSUNNY   93  74  53 S14       29.84F
VERNON         PTCLDY    94  67  41 SW13      29.85F
BRECKENRIDGE   MOCLDY    95  69  42 S9        29.87F
COMANCHE       SUNNY     95  72  46 S14G22    29.90F
$$

CENTRAL AND SOUTH CENTRAL TEXAS

CITY           SKY/WX    TMP DP  RH WIND       PRES   REMARKS
AUSTIN/BERGSTM MOSUNNY   99  70  38 S18       29.88F
WACO           SUNNY     97  72  44 S18       29.88F
HILLSBORO      PTCLDY    95  73  47 S13G21    29.89F
TEMPLE         MOSUNNY   99  70  38 S18G29    29.90F
KILLEEN-GRAY   MOSUNNY   94  68  42 S13       29.89F
FORT HOOD      SUNNY     95  70  43 S17       29.87F
GEORGETOWN     SUNNY     96  69  41 S10G21    29.92F
LAGO VISTA     FAIR      95  68  41 S8G17     29.93F
SAN MARCOS     SUNNY    N/A N/A N/A SE12        N/A
NEW BRAUNFELS  MOSUNNY   99  70  38 S15G22    29.88F
RANDOLPH AFB   MOSUNNY   95  69  41 S12       29.90F
SAN ANTONIO    MOSUNNY   96  69  41 S10       29.90F
STINSON        MOSUNNY   98  69  38 VRB5      29.86F
PLEASANTON     NOT AVBL
LA GRANGE      MOSUNNY   99  73  42 S9G16     29.88F
GIDDINGS       PTCLDY    98  67  35 S10G17    29.91F
$$

EAST TEXAS

CITY           SKY/WX    TMP DP  RH WIND       PRES   REMARKS
PARIS          PTSUNNY   92  74  55 S15       29.91F
CLARKSVILLE    NOT AVBL
TYLER          MOSUNNY   94  70  45 S15       29.92F
LONGVIEW       MOSUNNY   94  75  54 S10       29.92F
PALESTINE      PTCLDY    98  71  41 S9G16     29.92F
NACOGDOCHES    NOT AVBL
$$

TEXAS HILL COUNTRY AND EDWARDS PLATEAU

CITY           SKY/WX    TMP DP  RH WIND       PRES   REMARKS
LLANO          CLEAR     95  70  43 S8        29.93F
HORSESHOE BAY  FAIR      95  67  39 S7G16     29.92F
KERRVILLE      SUNNY     92  72  51 SE16      29.94F
FREDERICKSBRG  SUNNY     91  65  42 S12       29.94F
ROCKSPRINGS    NOT AVBL
HONDO          SUNNY     97  69  40 SE16      29.89F
UVALDE         CLEAR     99  65  32 SE10G22   29.88F
DEL RIO        SUNNY     98  71  41 S12       29.84F
$$

SOUTHEAST TEXAS

CITY           SKY/WX    TMP DP  RH WIND       PRES   REMARKS
COLLEGE STN    MOSUNNY   98  71  41 S16       29.90F
CALDWELL       NOT AVBL
CROCKETT       PTCLDY    95  73  49 S9        29.95S
BRENHAM        MOSUNNY   97  73  44 SE14G22   29.91S
HUNTSVILLE     SUNNY     96  69  41 S7G20     29.93F
CONROE         CLOUDY    95  73  48 S12       29.93F
HOUSTON BUSH   PTSUNNY   94  74  52 S13G20    29.93F
HOUSTON HOBBY  PTSUNNY   95  75  52 S15G25    29.93F
PERLAND        MOSUNNY   95  72  47 S16G22    29.96S
WHARTON        CLEAR     93  68  43 S12G17    29.95S
$$

THE UPPER TEXAS COAST

CITY           SKY/WX    TMP DP  RH WIND       PRES   REMARKS
ORANGE         CLOUDY    89  79  72 S9        30.00S
PORT ARTHUR    CLOUDY    88  77  69 S13       29.97F
GALVESTON      MOSUNNY   91  79  67 S17       29.98F
ANGLETON       PTSUNNY   92  77  61 S17G25    29.96F
BAY CITY       PTCLDY    93  76  58 S15       29.95F
$$

TEXAS COASTAL BEND, RIO GRANDE PLAINS DEEP SOUTH TEXAS

CITY           SKY/WX    TMP DP  RH WIND       PRES   REMARKS
VICTORIA       MOSUNNY   94  74  52 S18       29.92F
BEEVILLE       FAIR      99  74  45 SE22      29.88F
ROCKPORT       SUNNY     92  76  59 SE17G25   29.92F
PORT ARANSAS   CLEAR     90  78  69 SE14      29.92F
PORT LAVACA    PTCLDY    91  73  56 S12G20    29.94S
CORPUS CHRISTI MOSUNNY   95  75  52 SE18G30   29.89F
KINGSVILLE NAS MOSUNNY   98  77  50 SE21G32   29.87F
COTULLA        MOSUNNY  101  63  28 S9        29.84F
LAREDO         SUNNY    102  70  35 SE15      29.83F
BROWNSVILLE    MOSUNNY   93  78  61 SE21G31   29.90F
PORT ISABEL    MOSUNNY   95  78  58 SE24G32   29.89F
HEBBRONVILLE   PTCLDY    98  64  32 SE14G23   29.87F
MCALLEN        MOSUNNY  103  72  36 SE20G26   29.85F
WESLACO        MOSUNNY   99  73  42 S18G28    29.85F
FALFURRIAS     MOCLDY   100  65  31 SE14G20   29.85F
EDINBURG       PTCLDY   101  66  32 SE18G25   29.85F
$$




USA.gov is the U.S. government's official web portal to all federal, state and local government web resources and services.